Location: ActonStarParty
(42.4766°N, 71.4538°W)
Time: 15:17:30
(UTC-05:00)

ATLAS 5 CENTAUR R/B - Visible Passes

Search period start: 04 March 2015 00:00
Search period end: 14 March 2015 01:00
Orbit: 350 x 14894 km, 60.8° (Epoch: 03 March)

Date Brightness Start Highest point End Pass type
(mag) Time Alt. Az. Time Alt. Az. Time Alt. Az.
04 Mar 8.7 05:01:33 10° ESE 06:05:09 33° E 07:23:25 10° NE visible
04 Mar 6.8 21:28:28 10° NW 21:36:13 11° WNW 21:39:25 10° W visible
05 Mar 9.0 04:22:03 10° E 04:58:28 20° E 06:08:38 10° NE visible
05 Mar 6.2 20:07:43 10° NW 20:31:59 26° W 20:39:35 10° SW visible
06 Mar 5.7 18:49:27 10° NW 19:26:35 48° W 19:34:40 10° S visible
07 Mar 5.6 17:28:14 10° NW 18:19:21 78° WSW 18:28:06 10° SSE visible
08 Mar 8.6 06:01:26 10° SE 07:16:06 41° E 08:36:41 10° NE visible
09 Mar 8.9 05:14:23 10° ESE 06:07:27 27° E 07:23:36 10° NE visible
09 Mar 6.6 21:24:06 10° NW 21:40:38 17° WNW 21:47:06 10° WSW visible
10 Mar 9.3 04:41:41 10° E 05:02:24 15° ENE 06:06:05 10° NE visible
10 Mar 6.0 20:05:28 10° NW 20:35:52 35° W 20:43:53 10° SSW visible
11 Mar 5.7 18:46:05 10° NW 19:29:38 61° WSW 19:38:01 10° S visible
12 Mar 8.5 06:04:06 10° SE 07:27:34 49° E 08:49:03 10° NE visible
13 Mar 8.9 05:11:06 10° ESE 06:17:03 34° E 07:36:53 10° NE visible
13 Mar 7.1 21:44:20 10° NW 21:48:35 10° WNW 21:49:23 10° WNW visible
